Location: Hermaringen
(48.5952°N, 10.2585°E)
Time: 21:11:04
(UTC+00:00)

CZ-2D R/B - Pass Details

Date: 18 November 2025
Orbit: 404 x 412 km, 97.4° (Epoch: 10 December)

Event Time Altitude Azimuth Distance (km) Brightness Sun altitude
Rises 16:22:21 0° 150° (SSE) 2,330 6.4 -7.8°
Reaches altitude 10° 16:24:23 10° 143° (SE) 1,472 5.3 -8.1°
Maximum altitude 16:27:22 41° 72° (ENE) 612 3.1 -8.6°
Drops below altitude 10° 16:30:21 10° 1° (N) 1,478 5.3 -9.0°
Sets 16:32:24 0° 354° (N) 2,343 6.4 -9.4°
